Location: Unspecified
(0.0000°N, 0.0000°E)
Time: 07:48:16
(UTC+00:00)

OTV 5 (USA 277) - Pass Details

Date: 22 November 2017
Orbit: 404 x 417 km, 43.0° (Epoch: 07 September)

Event Time Altitude Azimuth Distance (km) Brightness Sun altitude
Rises 18:31:09 0° 197° (SSW) 2,351 ? -10.5°
Reaches altitude 10° 18:33:55 10° 173° (S) 1,486 ? -11.2°
Maximum altitude 18:35:57 15° 135° (SE) 1,211 ? -11.6°
Enters shadow 18:37:15 13° 110° (ESE) 1,325 ? -11.9°
